Hamburg Finkenwerder, Germany

7:13 AM CEST on April 28, 2017 (GMT +0200)
Finkenwerder

Weather History for EDHI - February, 2013

Change the Weather History Date:

Wednesday, February 27, 2013

  Actual Average Record
Temperature  
Mean Temperature 37 °F -  
Max Temperature 41 °F 39 °F 53 °F (2014)
Min Temperature 32 °F 33 °F 24 °F (2006)
Degree Days  
Heating Degree Days 28    
Moisture  
Dew Point 34 °F    
Average Humidity 91    
Maximum Humidity 100    
Minimum Humidity 70    
Precipitation  
Precipitation 0.00 in - - ()
Sea Level Pressure  
Sea Level Pressure 30.52 in    
Wind  
Wind Speed 5 mph ()    
Max Wind Speed 8 mph    
Max Gust Speed -    
Visibility 6.2 miles    
Events      
Averages and records for this station are not official NWS values.
T = Trace of Precipitation, MM = Missing Value Source: Averaged Metar Reports

Daily Weather History Graph

Daily Weather History Graph

Search for Another Location

Airport or City:

Trip Planner

Search our weather history database for the weather conditions in past years. The results will help you decide how hot, cold, wet, or windy it might be!

Date:

Astronomy

Feb. 27, 2013 Rise Set
Actual Time 7:12 AM CET 5:54 PM CET
Civil Twilight 6:37 AM CET 6:29 PM CET
Nautical Twilight 5:57 AM CET 7:10 PM CET
Astronomical Twilight 5:16 AM CET 7:51 PM CET
Moon 8:24 PM CET (2/27) 7:18 AM CET (2/27)
Length of Visible Light 11h 52m
Length of Day
10h 41m
Full, 97% of the Moon is Illuminated
Feb 27
Full
Mar 4
Last Quarter
Mar 11
New
Mar 19
First Quarter
Mar 27
Full

Hourly Weather History & Observations

Time (CET) Temp. Windchill Dew Point Humidity Pressure Visibility Wind Dir Wind Speed Gust Speed Precip Events Conditions
5:50 AM 33.8 °F 27.7 °F 33.8 °F 100% 30.54 in 6.2 mi ENE 6.9 mph - N/A   Mostly Cloudy
6:20 AM 33.8 °F 29.6 °F 33.8 °F 100% 30.54 in 6.2 mi ENE 4.6 mph - N/A   Mostly Cloudy
6:50 AM 33.8 °F 28.6 °F 33.8 °F 100% 30.54 in 6.2 mi East 5.8 mph - N/A   Mostly Cloudy
7:20 AM 33.8 °F 27.0 °F 33.8 °F 100% 30.54 in 6.2 mi ENE 8.1 mph - N/A   Mostly Cloudy
7:50 AM 33.8 °F 27.7 °F 33.8 °F 100% 30.54 in 6.2 mi ENE 6.9 mph - N/A   Mostly Cloudy
8:20 AM 33.8 °F 27.7 °F 33.8 °F 100% 30.54 in 6.2 mi ENE 6.9 mph - N/A   Mostly Cloudy
8:50 AM 33.8 °F 28.6 °F 32.0 °F 93% 30.54 in 6.2 mi ESE 5.8 mph - N/A   Mostly Cloudy
9:20 AM 33.8 °F 28.6 °F 33.8 °F 100% 30.54 in 6.2 mi ESE 5.8 mph - N/A   Mostly Cloudy
9:50 AM 35.6 °F 32.8 °F 33.8 °F 93% 30.54 in 6.2 mi Variable 3.5 mph - N/A   Mostly Cloudy
10:20 AM 35.6 °F 31.7 °F 32.0 °F 87% 30.57 in 6.2 mi ESE 4.6 mph - N/A   Mostly Cloudy
10:50 AM 33.8 °F 30.8 °F 32.0 °F 93% 30.57 in 6.2 mi Variable 3.5 mph - N/A   Scattered Clouds
11:20 AM 35.6 °F 32.8 °F 33.8 °F 93% 30.54 in 6.2 mi Variable 3.5 mph - N/A   Scattered Clouds
11:50 AM 37.4 °F - 32.0 °F 81% 30.54 in 6.2 mi Variable 2.3 mph - N/A   Partly Cloudy
12:20 PM 39.2 °F 37.0 °F 32.0 °F 75% 30.54 in - Variable 3.5 mph - N/A   Clear
12:50 PM 39.2 °F 37.0 °F 32.0 °F 75% 30.54 in - Variable 3.5 mph - N/A   Clear
1:20 PM 41.0 °F 39.0 °F 33.8 °F 76% 30.51 in - Variable 3.5 mph - N/A   Clear
1:50 PM 41.0 °F 39.0 °F 32.0 °F 70% 30.51 in - Variable 3.5 mph - N/A   Clear
2:20 PM 41.0 °F 39.0 °F 33.8 °F 76% 30.51 in - Variable 3.5 mph - N/A   Clear
2:50 PM 41.0 °F 37.1 °F 33.8 °F 76% 30.51 in - West 5.8 mph - N/A   Clear
3:20 PM 41.0 °F 37.1 °F 35.6 °F 81% 30.48 in - West 5.8 mph - N/A   Clear
3:50 PM 41.0 °F 36.4 °F 37.4 °F 87% 30.48 in - West 6.9 mph - N/A   Clear
4:20 PM 39.2 °F 34.2 °F 37.4 °F 93% 30.48 in - West 6.9 mph - N/A   Clear
4:50 PM 39.2 °F 33.6 °F 37.4 °F 93% 30.48 in - West 8.1 mph - N/A   Clear
5:20 PM 37.4 °F 32.1 °F 37.4 °F 100% 30.48 in - WNW 6.9 mph - N/A   Clear
5:50 PM 39.2 °F 35.0 °F 37.4 °F 93% 30.48 in - NW 5.8 mph - N/A   Clear
6:20 PM 37.4 °F 34.9 °F 37.4 °F 100% 30.48 in - Variable 3.5 mph - N/A   Clear
6:50 PM 37.4 °F 34.9 °F 35.6 °F 93% 30.48 in - NW 3.5 mph - N/A   Clear
7:20 PM 37.4 °F 33.8 °F 37.4 °F 100% 30.48 in - NNW 4.6 mph - N/A   Clear
7:50 PM 33.8 °F - 33.8 °F 100% 30.48 in - Variable 2.3 mph - N/A   Clear
8:20 PM 32.0 °F - 32.0 °F 100% 30.48 in - Variable 1.2 mph - N/A   Clear